Regional Weather Roundup
Issued by NWS Green Bay, WI

Home | Current Version | Previous Version | Graphics & Text | Print | Product List | Glossary Off
Versions: 1 2 3 4 5 6 7 8 9 10 11 12 13 14 15 16 17 18 19 20 21 22 23 24 25 26 27 28 29 30 31 32 33 34 35 36 37 38 39 40 41 42 43 44 45 46 47 48 49 50

000
ASUS43 KGRB 191059
RWRGRB

NORTH-CENTRAL AND NORTHEAST WISCONSIN REGIONAL WEATHER ROUNDUP
NATIONAL WEATHER SERVICE GREEN BAY WI
600 AM CDT FRI SEP 19 2014

WIZ005-009-010>012-018-019-191200-
NORTH CENTRAL WISCONSIN

CITY           SKY/WX    TMP DP  RH WIND       PRES   REMARKS
IRONWOOD       CLOUDY    54  52  94 S12G18    29.96S
MANITOWISH WTR NOT AVBL
ARBOR VITAE    NOT AVBL
EAGLE RIVER    NOT AVBL
LAND O LAKES   NOT AVBL
RHINELANDER    MOCLDY    50  49  96 S6        30.08S FOG
PHILLIPS       MOCLDY    51  50  97 S8        30.02F
ANTIGO         NOT AVBL
TOMAHAWK       NOT AVBL
MERRILL        NOT AVBL
$$

WIZ013-073-191200-
NORTHEAST WISCONSIN

CITY           SKY/WX    TMP DP  RH WIND       PRES   REMARKS
IRON MOUNTAIN  MOCLDY    47  45  93 S7        30.09F
MARINETTE      CLOUDY    52  50  93 SW8       30.13R
$$

WIZ017-030-035>037-045-191200-
CENTRAL WISCONSIN

CITY           SKY/WX    TMP DP  RH WIND       PRES   REMARKS
MEDFORD        NOT AVBL
WAUSAU         PTCLDY    49  48  97 SE6       30.08S FOG
MOSINEE        MOCLDY    48  48 100 SE5       30.10R FOG
MARSHFIELD     MOCLDY    50  49  96 S9        30.07F FOG
WISC RAPIDS    MOCLDY    49  48  97 SE5       30.11R FOG
STEVENS POINT  NOT AVBL
WAUPACA        NOT AVBL
SHAWANO        CLOUDY    46  45  95 CALM      30.13R FOG
CLINTONVILLE   FOG       45  45 100 SE6       30.12R VSB 1/2
$$

WIZ038-039-048-051-191200-
FOX VALLEY

CITY           SKY/WX    TMP DP  RH WIND       PRES   REMARKS
NWS GREEN BAY  CLOUDY    51  51 100 S6        30.15R FOG
APPLETON       FOG       52  52 100 S7        30.14R VSB 1/2
OSHKOSH        CLOUDY    54  54 100 S10       30.13R FOG
FOND DU LAC    CLOUDY    55  52  89 S6        30.13S FOG
$$

WIZ022-050-052-191200-
EAST CENTRAL WISCONSIN

CITY           SKY/WX    TMP DP  RH WIND       PRES   REMARKS
STURGEON BAY   CLOUDY    55  52  88 S10       30.16R
MANITOWOC      NOT AVBL
SHEBOYGAN      CLOUDY    48  47  96 CALM      30.15R FOG
$$

LMZ563-521-522-541>543-191200-
LAKESHORE

STATION/POSITION TIME  TEMP    WIND        PRES    VSBY  WAVE
                       AIR SEA DIR/SP/G                  HT/PER
                 (UTC) (F)     (DEG/KT/KT) (MB)    (MI)  (FT/S)
SHEBOYGAN LKSHOR 1000   56 52  160/ 13/ 13 1021.2F
KEWAUNEE LKSHORE 1000   53     180/  6/  7 1019.8R
NORTHPORT PIER   1000   57     150/  8/ 13 1020.7S
N MID LAKE BUOY  1000   56 58  190/ 17/ 21 1020.7F         3/ 4
S GREEN BAY BUOY 1000   56     VRB 12/ 16  1021.0F
SISTER BAY LKSHO 1000   53     170/  8/ 12   N/A
CHAMBERS ISLAND  1000   54     160/  4/  9 1020.3F
MENOMINEE LKSHOR 1000   55     180/ 12/ 18 1021.0R
$$


USA.gov is the U.S. government's official web portal to all federal, state and local government web resources and services.